{"data":{"norad_id":67260,"intl_designator":"2025-313N","name":"SITRO-AIS-60","alt_names":[],"object_type":"PAYLOAD","status":"ACTIVE","operator":null,"country":"CIS","launch_date":"2025-12-28","launch_site_code":"VOSTO","launch_vehicle":null,"mission":null,"orbit_class":"UNKNOWN","rcs_meters":null,"size_class":null,"mass_kg":null,"dimensions":null,"purposes":[],"wikipedia_slug":null,"has_3d_model":false,"image_url":null,"decayed_at":null,"tle_current":{"epoch":"2026-09-20T14:38:49.856064Z","epoch_age_seconds":93590,"freshness":"FRESH","line1":"1 67260U 25313N   26263.61029926  .00004404  00000+0  18865-3 0  9991","line2":"2 67260  97.3870 336.5979 0014005  34.9376 325.2777 15.23207619 40464","mean_motion":15.23207619,"eccentricity":0.0014005,"inclination_deg":97.387,"raan_deg":336.5979,"arg_perigee_deg":34.9376,"mean_anomaly_deg":325.2777,"bstar":0.00018865,"rev_number":4046,"period_min":94.537342253144,"perigee_km":486.54541513873,"apogee_km":505.8003571298,"semimajor_km":6874.3098861343,"source":"CELESTRAK","updated_at":"2026-09-21T09:00:16.514181Z"}}}